Wetbulb
37.23 37.69 37.87 37.89 37.62 37.86 38.02 38.93 39.21 39.32 40.07 40.49 40.79 40.80 41.61 42.14 42.25 43.00 43.84 44.31 45.30 46.25 47.53 49.33 51.03 53.07 54.63 65.30 65.10 65.07 64.59 64.66
37.55 37.43 37.47 36.93 37.19 37.07 37.64 37.83 38.38 38.62 38.18 37.26 36.90 36.66 38.62 40.01 41.42 42.41 43.15 43.00 43.70 44.16 46.12 48.94 50.59 52.08 54.44 62.02 64.81 63.29 63.47 64.45
36.07 36.33 36.23 35.70 36.01 37.03 37.41 37.42 37.79 37.92 37.03 36.55 36.40 36.82 37.64 38.75 40.03 41.23 42.39 42.49 42.85 42.69 44.74 46.59 50.71 54.38 55.63 57.80 63.42 62.07 62.14 64.26
34.10 34.21 34.55 35.25 35.57 36.39 36.75 36.86 37.17 37.21 36.52 36.23 35.83 36.84 37.39 36.81 38.30 39.20 40.51 42.63 43.82 43.54 43.55 46.08 49.15 52.02 53.58 55.76 60.12 56.73 54.11 59.88
33.41 33.21 33.41 34.13 35.07 36.61 36.77 36.81 36.20 36.56 35.80 34.40 34.13 33.14 32.48 34.90 36.37 37.86 39.06 41.29 43.34 44.50 45.26 44.75 45.40 48.47 52.40 56.49 59.22 58.52 57.89 56.37
32.20 32.44 32.67 33.96 34.90 35.13 35.86 36.20 35.55 35.04 34.83 34.55 34.27 33.67 34.55 35.60 36.05 36.98 38.24 40.61 43.09 45.25 46.03 46.06 45.36 48.54 50.77 53.84 56.52 59.71 58.24 60.10
32.26 33.04 32.67 33.06 34.75 34.33 35.09 35.09 34.35 34.86 34.40 34.89 34.70 34.21 33.67 33.60 34.24 35.20 37.05 38.94 40.99 43.50 45.67 46.98 46.85 48.58 51.00 54.55 58.41 61.03 61.33 60.47
31.01 31.04 31.26 31.75 32.31 33.24 33.66 34.06 33.40 34.23 33.99 34.14 34.42 34.35 33.80 33.11 33.81 34.18 34.96 36.66 38.93 40.78 43.21 46.45 47.81 50.11 52.13 55.54 57.11 59.06 61.94 61.31
29.94 29.23 30.38 30.85 31.77 32.15 32.97 32.73 32.95 33.54 33.14 33.56 34.59 34.22 34.19 33.43 32.91 33.37 34.15 35.28 37.15 40.34 42.65 44.34 47.17 50.55 52.99 54.64 57.22 58.06 61.52 60.06
28.45 28.70 29.92 30.58 30.34 31.12 31.70 31.77 32.21 32.52 32.29 33.51 33.27 33.16 33.02 32.06 32.01 33.01 32.85 34.78 36.55 38.91 41.07 44.00 49.79 51.52 52.78 53.77 56.91 58.00 60.49 59.46
28.18 28.13 28.84 29.98 30.18 31.03 31.45 31.80 30.47 30.98 31.62 32.19 32.03 31.35 32.20 31.46 31.78 31.66 31.78 33.58 34.64 36.54 37.97 40.68 42.88 44.91 47.07 51.07 53.69 58.28 59.67 60.67
27.13 27.44 28.44 29.08 30.36 30.41 30.15 29.75 29.21 29.03 29.63 30.25 30.79 30.37 30.18 30.74 29.90 30.70 31.20 32.42 33.12 34.43 35.48 36.82 39.37 40.89 42.58 47.50 52.67 55.25 57.44 57.66
25.51 27.14 27.61 27.81 28.41 28.84 29.04 28.84 28.09 28.46 28.71 27.96 28.91 28.73 28.89 28.78 28.63 29.03 29.49 31.13 32.25 32.38 33.58 33.75 35.03 36.83 39.04 39.71 40.33 41.23 42.73 42.39
25.86 26.05 25.79 26.77 27.81 27.60 28.74 28.93 27.96 28.44 27.96 27.11 26.85 27.16 26.49 26.36 27.08 27.94 29.11 29.84 30.98 31.33 31.64 32.17 32.35 33.32 34.22 35.80 36.65 37.04 37.90 38.41
26.04 25.56 25.62 26.74 27.60 28.23 28.37 28.72 29.05 28.63 28.09 26.81 25.23 25.97 25.90 25.93 25.57 26.45 26.65 28.10 28.71 30.19 30.41 30.69 31.62 31.82 32.35 32.00 32.18 33.03 33.52 34.33
26.45 25.57 25.70 26.67 27.52 27.99 28.82 28.89 28.87 28.72 27.59 27.15 26.67 26.91 26.35 25.45 25.49 25.82 26.34 26.45 27.35 28.70 29.46 29.57 30.22 30.95 31.48 31.08 30.32 29.31 29.37 30.52
26.27 26.04 26.10 26.14 27.02 27.40 27.76 28.13 28.03 28.51 27.09 26.59 27.24 26.98 26.30 25.74 25.56 25.16 25.46 25.59 25.52 27.34 28.16 28.61 28.52 29.87 31.80 31.04 30.00 29.28 28.08 27.34
25.44 25.20 25.56 26.19 26.68 27.28 26.91 27.57 28.21 27.34 26.97 26.59 26.49 26.34 25.48 25.13 25.40 24.59 24.32 24.01 24.58 25.21 25.72 27.30 26.63 27.65 29.56 29.67 28.73 26.96 26.41 26.94
25.12 24.80 24.78 25.73 26.97 27.23 27.56 27.66 27.34 26.57 25.94 25.96 25.78 25.44 24.84 24.63 24.63 23.98 24.18 24.73 23.12 22.76 23.98 25.20 26.65 27.00 26.87 27.38 27.03 26.48 25.91 25.75
MSLP
1024.67 1024.56 1024.34 1024.06 1023.70 1023.31 1022.80 1022.14 1021.50 1020.89 1020.01 1019.22 1018.45 1017.95 1017.51 1016.91 1016.11 1015.54 1015.06 1014.65 1014.27 1013.66 1012.64 1011.79 1011.24 1010.52 1009.85 1008.64 1008.77 1009.20 1008.91 1009.56
1024.68 1024.58 1024.34 1024.14 1023.87 1023.31 1022.63 1021.97 1021.40 1020.71 1019.95 1019.36 1018.53 1018.03 1017.38 1016.42 1015.63 1015.03 1014.46 1014.11 1013.80 1013.12 1012.19 1011.31 1010.68 1009.88 1009.24 1008.59 1007.71 1008.09 1008.10 1008.37
1024.67 1024.55 1024.42 1024.25 1023.78 1023.15 1022.49 1021.93 1021.45 1021.03 1020.73 1020.26 1019.44 1018.56 1017.53 1016.45 1015.56 1014.72 1014.06 1013.40 1012.97 1012.41 1011.61 1010.80 1010.04 1008.96 1008.67 1007.99 1007.13 1007.15 1007.57 1007.75
1025.02 1024.90 1024.81 1024.54 1023.87 1023.21 1022.62 1022.11 1021.63 1021.32 1020.81 1020.00 1019.15 1018.37 1017.29 1016.23 1015.26 1014.35 1013.68 1013.05 1012.30 1011.50 1011.01 1010.30 1009.39 1008.86 1008.10 1007.41 1006.63 1006.86 1007.54 1007.20
1025.50 1025.31 1024.96 1024.61 1024.07 1023.52 1022.94 1022.16 1021.55 1021.02 1020.66 1019.85 1019.19 1018.21 1016.98 1015.94 1014.83 1013.92 1013.12 1012.22 1011.41 1010.64 1009.84 1009.39 1009.03 1008.68 1007.59 1006.68 1006.10 1005.80 1006.10 1005.97
1025.89 1025.64 1025.34 1024.92 1024.25 1023.66 1022.91 1021.92 1021.60 1021.27 1020.68 1020.23 1019.33 1018.08 1016.95 1015.68 1014.56 1013.55 1012.47 1011.38 1010.55 1009.61 1009.00 1008.25 1008.08 1007.74 1006.95 1006.24 1005.39 1004.71 1005.12 1004.94
1026.22 1025.81 1025.50 1025.07 1024.55 1023.98 1022.63 1022.00 1021.80 1021.19 1020.94 1020.11 1018.98 1017.82 1016.83 1015.62 1014.53 1013.43 1012.17 1011.20 1010.07 1009.11 1008.24 1007.38 1006.91 1006.72 1005.78 1004.98 1004.46 1003.77 1003.75 1004.31
1026.39 1026.12 1025.59 1025.30 1024.74 1023.94 1022.80 1022.38 1021.69 1021.40 1020.87 1019.84 1018.88 1017.86 1016.85 1015.81 1014.81 1013.71 1012.50 1011.18 1009.81 1008.74 1007.93 1006.72 1005.89 1005.42 1004.76 1004.02 1003.62 1003.50 1002.81 1003.08
1026.74 1026.62 1026.16 1025.71 1025.18 1024.41 1023.47 1022.75 1021.97 1021.60 1020.77 1019.71 1018.75 1017.93 1016.97 1016.16 1015.32 1014.27 1012.96 1011.60 1010.21 1008.71 1007.28 1005.99 1005.01 1004.41 1003.92 1003.51 1002.89 1002.65 1002.29 1002.23
1027.03 1026.73 1026.22 1026.14 1025.74 1024.78 1023.89 1023.27 1022.79 1021.87 1021.04 1020.19 1019.18 1018.23 1017.31 1016.70 1015.70 1014.63 1013.38 1011.84 1010.27 1008.54 1006.98 1005.30 1003.80 1003.49 1003.51 1003.14 1002.34 1001.77 1001.75 1001.49
1026.99 1026.99 1026.68 1026.46 1026.17 1025.37 1024.62 1024.17 1023.44 1022.46 1021.76 1021.07 1020.00 1019.01 1018.10 1017.24 1016.06 1014.80 1013.52 1011.92 1010.55 1008.86 1007.30 1005.90 1004.88 1004.22 1003.87 1003.17 1002.33 1001.49 1001.47 1000.98
1027.25 1027.27 1026.95 1026.86 1026.28 1025.60 1025.28 1024.44 1023.80 1022.86 1022.42 1021.89 1020.94 1019.82 1018.84 1017.81 1016.79 1015.72 1014.36 1012.89 1011.29 1009.29 1008.22 1007.03 1005.99 1005.22 1004.31 1003.27 1002.40 1002.00 1001.89 1001.74
1027.49 1027.30 1027.27 1026.80 1026.29 1025.94 1025.67 1024.85 1024.19 1023.60 1023.12 1022.70 1021.76 1020.66 1019.61 1018.77 1017.97 1016.70 1015.06 1013.66 1011.72 1010.56 1009.44 1008.34 1007.52 1006.45 1006.01 1004.98 1004.20 1004.02 1003.83 1003.71
1027.47 1027.34 1027.31 1026.72 1026.62 1026.30 1025.98 1025.11 1024.55 1024.10 1023.53 1022.99 1022.39 1021.37 1020.32 1019.70 1018.94 1017.65 1016.23 1014.57 1012.70 1011.76 1011.01 1010.00 1009.20 1008.56 1007.74 1007.07 1006.60 1006.59 1006.48 1006.26
1027.21 1027.09 1027.26 1026.85 1026.65 1026.37 1026.05 1025.30 1024.72 1024.29 1023.75 1023.20 1022.80 1022.23 1021.50 1020.69 1019.83 1018.75 1017.31 1015.88 1014.62 1013.61 1012.95 1012.20 1011.30 1010.44 1009.62 1009.15 1008.76 1008.72 1008.71 1008.90
1026.79 1026.82 1027.07 1026.82 1026.68 1026.55 1026.23 1025.57 1024.97 1024.44 1023.84 1023.35 1023.04 1022.76 1022.26 1021.36 1020.41 1019.92 1018.58 1017.38 1016.47 1015.67 1014.80 1013.96 1013.39 1011.93 1011.82 1011.41 1011.01 1010.92 1010.63 1010.67
1026.36 1026.58 1026.91 1026.87 1026.84 1026.81 1026.49 1025.89 1025.44 1024.94 1024.24 1023.94 1023.45 1022.84 1022.20 1021.71 1021.25 1020.83 1019.90 1019.18 1018.30 1017.61 1016.91 1016.25 1014.52 1013.95 1013.86 1013.41 1012.70 1012.41 1012.66 1012.85
1026.29 1026.74 1027.12 1027.17 1027.26 1027.21 1026.86 1026.41 1026.02 1025.51 1025.10 1024.60 1024.22 1023.55 1022.76 1022.45 1021.97 1021.44 1020.86 1020.76 1020.31 1019.34 1018.26 1017.14 1016.41 1016.49 1015.66 1015.54 1014.88 1014.21 1013.94 1014.42
1026.26 1026.97 1027.48 1027.58 1027.63 1027.43 1027.25 1026.95 1026.55 1026.25 1025.88 1025.38 1025.00 1024.58 1023.82 1023.33 1022.91 1022.51 1022.37 1022.32 1021.77 1021.00 1020.27 1019.68 1018.84 1018.63 1018.53 1017.39 1016.36 1014.45 1016.29 1015.66
Wind_Speed
11 13 13 14 14 14 14 13 16 17 12 12 11 11 11 11 11 12 16 12 15 14 12 14 13 10 10 12 15 11 11 12
10 12 13 14 13 14 15 16 17 14 12 14 13 13 14 13 12 16 16 14 15 15 12 14 13 13 12 15 14 17 13 11
13 14 15 14 14 15 16 16 17 14 11 11 11 11 11 13 13 14 16 16 15 13 15 12 14 11 11 12 14 10 11 11
13 14 14 13 15 15 15 16 17 15 17 11 10 11 10 11 12 12 13 17 16 15 15 14 13 13 10 12 13 14 13 11
10 12 13 13 14 14 14 15 17 16 17 14 17 13 14 13 12 12 13 17 17 15 15 14 13 11 14 12 10 14 15 15
10 11 12 12 13 13 13 16 17 17 18 16 13 14 12 13 13 17 16 15 16 15 15 13 13 12 16 17 14 14 13 12
10 10 11 12 12 13 14 17 16 17 17 18 19 18 17 14 15 13 11 12 11 14 15 13 11 14 17 15 15 14 14 15
10 12 12 13 15 15 14 16 16 18 19 19 19 17 16 16 15 12 16 12 11 12 16 13 10 14 17 15 14 12 12 11
9 9 10 12 14 15 15 17 17 18 18 19 18 18 10 11 14 13 11 11 12 15 13 17 15 16 15 14 11 10 12 12
7 9 10 11 12 13 15 16 16 17 18 18 18 18 17 15 16 15 11 13 13 14 14 16 10 13 15 12 9 13 11 12
7 8 9 10 10 9 13 14 15 16 17 17 16 18 17 17 15 19 19 16 16 15 16 15 14 11 8 7 10 11 12 10
5 6 8 8 8 10 10 12 14 14 16 16 17 17 19 18 17 17 16 16 18 18 18 18 16 14 13 8 8 10 12 6
3 5 6 8 10 11 10 11 12 12 12 14 16 15 18 18 18 19 18 17 20 21 21 21 19 19 17 16 14 13 12 11
2 5 6 8 8 9 9 10 12 12 11 12 15 16 16 18 18 18 18 18 20 24 22 22 22 20 19 19 19 18 16 15
3 4 5 6 8 9 10 12 11 10 11 12 13 15 15 15 16 18 19 20 21 20 22 22 21 22 21 21 21 20 19 17
5 5 4 6 8 9 10 11 13 13 14 15 13 12 13 14 17 17 18 20 19 19 18 19 20 22 18 19 21 22 21 19
6 5 5 7 8 8 9 11 13 13 14 15 15 16 17 16 16 17 19 20 20 20 19 19 23 18 33 34 24 20 22 21
7 6 5 5 6 6 9 10 11 13 14 15 15 16 17 18 18 17 18 19 16 19 20 20 24 19 33 30 29 18 19 19
8 6 5 5 5 6 7 9 10 12 13 14 15 16 17 17 18 19 18 16 17 17 19 20 19 21 31 26 26 22 17 20
Wind_Direction
359 358 358 355 354 350 346 346 345 341 336 333 333 328 323 317 313 307 306 301 297 292 285 282 278 279 278 249 224 227 204 209
359 0 359 355 356 350 352 349 349 348 345 340 335 326 321 316 313 309 305 299 294 292 284 281 272 259 258 278 228 228 209 197
0 360 359 358 348 352 354 354 351 349 343 328 319 312 307 305 302 305 304 297 291 286 284 281 278 270 277 281 236 219 224 200
355 355 355 351 355 353 353 352 350 346 342 329 320 308 303 310 311 306 303 296 290 284 278 279 277 264 256 260 249 227 233 235
355 352 353 353 353 348 352 354 353 350 342 335 328 319 317 314 308 303 303 296 284 275 277 270 267 275 266 257 256 227 215 214
355 354 350 349 350 348 351 359 357 347 343 336 324 321 316 317 316 311 307 300 292 284 270 266 265 257 258 256 250 218 222 223
357 356 354 353 351 349 1 2 353 352 340 337 338 336 330 326 323 318 317 308 297 291 283 268 251 258 256 258 250 252 207 211
0 357 357 352 353 356 4 0 357 352 343 343 341 338 336 333 332 326 322 315 313 304 300 285 262 255 250 255 262 243 216 210
4 350 354 354 353 354 2 1 356 354 348 346 349 350 341 344 338 334 325 320 317 308 297 277 259 256 257 259 258 254 232 208
1 353 5 353 343 347 0 0 355 359 356 352 351 354 351 349 349 347 334 337 327 329 331 340 262 254 260 254 259 254 235 214
11 359 360 353 338 342 4 3 2 3 0 356 359 357 355 358 355 1 355 353 346 352 360 1 358 353 339 289 261 260 249 231
3 356 358 348 354 360 357 5 1 6 4 358 360 5 3 4 3 357 357 358 3 15 15 13 11 4 4 341 257 263 256 248
343 5 353 7 13 3 357 7 4 3 3 0 5 2 9 4 0 1 358 7 22 19 22 26 21 22 20 29 37 38 48 48
32 30 6 18 14 360 356 12 13 2 4 11 9 10 12 8 0 3 6 11 23 25 20 26 27 28 32 35 41 41 38 39
105 52 18 20 19 14 9 17 21 13 13 18 16 12 14 14 6 6 12 14 21 24 26 22 28 32 35 38 40 40 39 31
118 79 32 27 26 21 18 22 22 21 28 26 25 18 17 19 24 13 19 20 21 21 28 30 27 38 33 39 46 42 38 31
125 101 62 45 34 28 24 26 25 23 28 28 24 25 27 26 26 24 22 21 19 24 25 29 35 36 40 43 47 47 44 37
131 110 84 62 45 37 35 31 31 32 28 28 25 25 32 27 29 28 31 27 22 23 26 28 39 36 38 42 47 54 47 41
130 121 112 80 63 55 48 43 42 41 35 32 29 27 30 30 30 33 35 31 31 28 28 29 38 38 35 38 44 53 48 44